Location: Bremen
(53.0793°N, 8.8017°E)
Time: 06:36:09
(UTC+02:00)

Explorer 7 - Pass Details

Date: 15 April 2024
Orbit: 467 x 626 km, 50.3° (Epoch: 17 May)

Event Time Altitude Azimuth Distance (km) Brightness Sun altitude
Rises 17:31:20 0° 267° (W) 2,904 11.8 24.9°
Reaches altitude 10° 17:33:42 10° 264° (W) 1,985 11.4 24.6°
Maximum altitude 17:38:12 61° 185° (S) 690 7.8 23.9°
Drops below altitude 10° 17:42:31 10° 106° (ESE) 1,904 9.2 23.3°
Sets 17:44:45 0° 102° (ESE) 2,776 9.9 23.0°
